Time,TemperatureF,DewpointF,PressureIn,WindDirection,WindDirectionDegrees,WindSpeedMPH,WindSpeedGustMPH,Humidity,HourlyPrecipIn,Conditions,Clouds,dailyrainin,SolarRadiationWatts/m^2,SoftwareType,DateUTC
2013-01-03 00:00:00,29.8,26.4,30.25,WNW,283,8.0,9.0,87,0.00,,,0.00,0,Wunderground v.1.15,2013-01-03 06:00:00,
2013-01-03 00:10:00,29.7,26.3,30.25,WNW,300,9.0,14.0,87,0.00,,,0.00,0,Wunderground v.1.15,2013-01-03 06:10:00,
2013-01-03 00:20:00,29.6,26.2,30.25,WSW,253,9.0,9.0,87,0.00,,,0.00,0,Wunderground v.1.15,2013-01-03 06:20:00,
2013-01-03 00:30:00,29.5,26.1,30.25,NW,305,9.0,9.0,87,0.00,,,0.00,0,Wunderground v.1.15,2013-01-03 06:30:00,
2013-01-03 00:40:00,29.4,26.3,30.25,WNW,294,9.0,9.0,88,0.00,,,0.00,0,Wunderground v.1.15,2013-01-03 06:40:00,
2013-01-03 00:50:00,29.3,25.9,30.25,WNW,286,8.0,9.0,87,0.00,,,0.00,0,Wunderground v.1.15,2013-01-03 06:50:00,
2013-01-03 01:00:00,29.2,26.1,30.24,WNW,285,8.0,10.0,88,0.00,,,0.00,0,Wunderground v.1.15,2013-01-03 07:00:00,
2013-01-03 01:10:00,29.1,26.0,30.25,WNW,287,8.0,9.0,88,0.00,,,0.00,0,Wunderground v.1.15,2013-01-03 07:10:00,
2013-01-03 01:20:00,29.0,25.9,30.25,WNW,286,8.0,14.0,88,0.00,,,0.00,0,Wunderground v.1.15,2013-01-03 07:20:00,
2013-01-03 01:30:00,29.0,25.9,30.25,NW,322,8.0,8.0,88,0.00,,,0.00,0,Wunderground v.1.15,2013-01-03 07:30:00,
2013-01-03 01:40:00,28.9,25.8,30.25,NW,306,7.0,7.0,88,0.00,,,0.00,0,Wunderground v.1.15,2013-01-03 07:40:00,
2013-01-03 01:50:00,28.9,25.8,30.25,West,271,7.0,7.0,88,0.00,,,0.00,0,Wunderground v.1.15,2013-01-03 07:50:00,
2013-01-03 02:00:00,28.9,25.8,30.25,NW,305,6.0,10.0,88,0.00,,,0.00,0,Wunderground v.1.15,2013-01-03 08:00:00,
2013-01-03 02:10:00,28.9,25.8,30.25,West,279,7.0,7.0,88,0.00,,,0.00,0,Wunderground v.1.15,2013-01-03 08:10:00,
2013-01-03 02:20:00,28.9,25.8,30.26,WNW,284,7.0,10.0,88,0.00,,,0.00,0,Wunderground v.1.15,2013-01-03 08:20:00,
2013-01-03 02:30:00,29.0,25.9,30.26,WNW,292,7.0,8.0,88,0.00,,,0.00,0,Wunderground v.1.15,2013-01-03 08:30:00,
2013-01-03 02:40:00,29.1,26.0,30.26,NW,306,7.0,10.0,88,0.00,,,0.00,0,Wunderground v.1.15,2013-01-03 08:40:00,
2013-01-03 02:50:00,29.1,26.0,30.26,NW,315,8.0,8.0,88,0.00,,,0.00,0,Wunderground v.1.15,2013-01-03 08:50:00,
2013-01-03 03:00:00,29.2,26.1,30.26,NW,309,7.0,7.0,88,0.00,,,0.00,0,Wunderground v.1.15,2013-01-03 09:00:00,
2013-01-03 03:10:00,29.2,26.1,30.27,WNW,300,6.0,6.0,88,0.00,,,0.00,0,Wunderground v.1.15,2013-01-03 09:10:00,
2013-01-03 03:20:00,29.3,26.2,30.26,NNW,327,7.0,7.0,88,0.00,,,0.00,0,Wunderground v.1.15,2013-01-03 09:20:00,
2013-01-03 03:30:00,29.3,25.9,30.27,WNW,302,8.0,9.0,87,0.00,,,0.00,0,Wunderground v.1.15,2013-01-03 09:30:00,
2013-01-03 03:40:00,28.2,24.6,30.27,North,360,9.0,9.0,86,0.00,,,0.00,0,Wunderground v.1.15,2013-01-03 09:40:00,
2013-01-03 03:50:00,27.4,24.0,30.27,NW,325,8.0,12.0,87,0.00,,,0.00,0,Wunderground v.1.15,2013-01-03 09:50:00,
2013-01-03 04:00:00,26.9,23.8,30.27,North,350,9.0,9.0,88,0.00,,,0.00,0,Wunderground v.1.15,2013-01-03 10:00:00,
2013-01-03 04:10:00,26.6,23.5,30.27,NNW,342,9.0,9.0,88,0.00,,,0.00,0,Wunderground v.1.15,2013-01-03 10:10:00,
2013-01-03 04:20:00,26.4,23.3,30.28,NNW,347,9.0,10.0,88,0.00,,,0.00,0,Wunderground v.1.15,2013-01-03 10:20:00,
2013-01-03 04:30:00,25.8,22.5,30.28,NNW,329,12.0,12.0,87,0.00,,,0.00,0,Wunderground v.1.15,2013-01-03 10:30:00,
2013-01-03 04:40:00,25.0,21.7,30.29,NNW,348,11.0,11.0,87,0.00,,,0.00,0,Wunderground v.1.15,2013-01-03 10:40:00,
2013-01-03 04:50:00,24.4,21.1,30.30,North,9,9.0,9.0,87,0.00,,,0.00,0,Wunderground v.1.15,2013-01-03 10:50:00,
2013-01-03 05:00:00,23.9,20.6,30.30,NNW,336,8.0,11.0,87,0.00,,,0.00,0,Wunderground v.1.15,2013-01-03 11:00:00,
2013-01-03 05:10:00,23.4,20.1,30.30,NNW,332,8.0,8.0,87,0.00,,,0.00,0,Wunderground v.1.15,2013-01-03 11:10:00,
2013-01-03 05:20:00,23.3,20.0,30.31,NNW,332,11.0,12.0,87,0.00,,,0.00,0,Wunderground v.1.15,2013-01-03 11:20:00,
2013-01-03 05:30:00,22.9,19.3,30.32,NNW,338,15.0,16.0,86,0.00,,,0.00,0,Wunderground v.1.15,2013-01-03 11:30:00,
2013-01-03 05:40:00,22.1,18.3,30.33,NNW,338,13.0,13.0,85,0.00,,,0.00,0,Wunderground v.1.15,2013-01-03 11:40:00,
2013-01-03 05:50:00,21.3,17.2,30.33,NNW,333,14.0,15.0,84,0.00,,,0.00,0,Wunderground v.1.15,2013-01-03 11:50:00,
2013-01-03 06:00:00,20.3,16.0,30.34,NNW,327,13.0,13.0,83,0.00,,,0.00,0,Wunderground v.1.15,2013-01-03 12:00:00,
2013-01-03 06:10:00,19.1,13.4,30.35,NW,311,11.0,13.0,78,0.00,,,0.00,0,Wunderground v.1.15,2013-01-03 12:10:00,
2013-01-03 06:20:00,17.4,12.0,30.35,NW,319,11.0,11.0,79,0.00,,,0.00,0,Wunderground v.1.15,2013-01-03 12:20:00,
2013-01-03 06:30:00,16.1,11.3,30.35,NW,318,9.0,9.0,81,0.00,,,0.00,0,Wunderground v.1.15,2013-01-03 12:30:00,
2013-01-03 06:40:00,15.1,10.3,30.36,NNW,328,8.0,9.0,81,0.00,,,0.00,0,Wunderground v.1.15,2013-01-03 12:40:00,
2013-01-03 06:50:00,14.4,9.4,30.37,NNW,334,10.0,10.0,80,0.00,,,0.00,0,Wunderground v.1.15,2013-01-03 12:50:00,
2013-01-03 07:00:00,13.7,8.7,30.37,WNW,303,10.0,13.0,80,0.00,,,0.00,0,Wunderground v.1.15,2013-01-03 13:00:00,
2013-01-03 07:10:00,13.0,8.0,30.37,NW,321,10.0,10.0,80,0.00,,,0.00,0,Wunderground v.1.15,2013-01-03 13:10:00,
2013-01-03 07:20:00,12.5,7.8,30.38,NW,313,10.0,10.0,81,0.00,,,0.00,0,Wunderground v.1.15,2013-01-03 13:20:00,
2013-01-03 07:30:00,12.0,7.3,30.39,NW,317,7.0,7.0,81,0.00,,,0.00,0,Wunderground v.1.15,2013-01-03 13:30:00,
2013-01-03 07:40:00,11.3,6.6,30.39,NW,307,5.0,6.0,81,0.00,,,0.00,0,Wunderground v.1.15,2013-01-03 13:40:00,
2013-01-03 07:50:00,10.7,6.3,30.40,NW,321,6.0,6.0,82,0.00,,,0.00,5,Wunderground v.1.15,2013-01-03 13:50:00,
2013-01-03 08:00:00,10.4,6.0,30.40,NW,311,7.0,7.0,82,0.00,,,0.00,11,Wunderground v.1.15,2013-01-03 14:00:00,
2013-01-03 08:10:00,10.4,6.0,30.40,NNW,335,7.0,7.0,82,0.00,,,0.00,14,Wunderground v.1.15,2013-01-03 14:10:00,
2013-01-03 08:20:00,10.2,5.8,30.41,NNW,341,7.0,7.0,82,0.00,,,0.00,19,Wunderground v.1.15,2013-01-03 14:20:00,
2013-01-03 08:30:00,10.0,5.6,30.41,NW,311,7.0,7.0,82,0.00,,,0.00,23,Wunderground v.1.15,2013-01-03 14:30:00,
2013-01-03 08:40:00,9.9,5.5,30.41,NW,315,7.0,8.0,82,0.00,,,0.00,28,Wunderground v.1.15,2013-01-03 14:40:00,
2013-01-03 08:50:00,9.9,5.5,30.41,NW,324,7.0,7.0,82,0.00,,,0.00,32,Wunderground v.1.15,2013-01-03 14:50:00,
2013-01-03 09:00:00,10.1,5.7,30.42,NNW,331,7.0,7.0,82,0.00,,,0.00,35,Wunderground v.1.15,2013-01-03 15:00:00,
2013-01-03 09:10:00,10.4,5.7,30.42,NNW,331,7.0,7.0,81,0.00,,,0.00,39,Wunderground v.1.15,2013-01-03 15:10:00,
2013-01-03 09:20:00,10.3,5.6,30.42,WNW,292,6.0,6.0,81,0.00,,,0.00,40,Wunderground v.1.15,2013-01-03 15:20:00,
2013-01-03 09:30:00,10.4,5.7,30.43,NW,317,5.0,6.0,81,0.00,,,0.00,44,Wunderground v.1.15,2013-01-03 15:30:00,
2013-01-03 09:40:00,10.7,6.0,30.43,WNW,295,6.0,9.0,81,0.00,,,0.00,46,Wunderground v.1.15,2013-01-03 15:40:00,
2013-01-03 09:50:00,10.9,5.9,30.43,NW,323,7.0,7.0,80,0.00,,,0.00,47,Wunderground v.1.15,2013-01-03 15:50:00,
2013-01-03 10:00:00,10.9,5.9,30.43,North,32767,-999.0,0.0,80,0.00,,,0.00,49,Wunderground v.1.15,2013-01-03 16:00:00,
2013-01-03 10:10:00,11.2,6.2,30.43,North,32767,-999.0,0.0,80,0.00,,,0.00,51,Wunderground v.1.15,2013-01-03 16:10:00,
2013-01-03 10:20:00,11.6,6.6,30.44,North,32767,-999.0,0.0,80,0.00,,,0.00,54,Wunderground v.1.15,2013-01-03 16:20:00,
2013-01-03 10:30:00,12.0,6.7,30.45,North,32767,-999.0,0.0,79,0.00,,,0.00,65,Wunderground v.1.15,2013-01-03 16:30:00,
2013-01-03 10:40:00,12.3,7.0,30.45,North,32767,-999.0,0.0,79,0.00,,,0.00,134,Wunderground v.1.15,2013-01-03 16:40:00,
2013-01-03 10:50:00,12.5,7.2,30.44,North,32767,-999.0,0.0,79,0.00,,,0.00,225,Wunderground v.1.15,2013-01-03 16:50:00,
2013-01-03 11:00:00,12.8,7.5,30.45,North,32767,-999.0,0.0,79,0.00,,,0.00,306,Wunderground v.1.15,2013-01-03 17:00:00,
2013-01-03 11:10:00,13.2,7.6,30.45,North,32767,-999.0,0.0,78,0.00,,,0.00,352,Wunderground v.1.15,2013-01-03 17:10:00,
2013-01-03 11:20:00,13.6,8.0,30.45,WNW,303,7.0,7.0,78,0.00,,,0.00,390,Wunderground v.1.15,2013-01-03 17:20:00,
2013-01-03 11:30:00,13.9,8.0,30.44,NW,312,8.0,8.0,77,0.00,,,0.00,411,Wunderground v.1.15,2013-01-03 17:30:00,
2013-01-03 11:40:00,14.4,8.5,30.44,NNW,336,8.0,8.0,77,0.00,,,0.00,425,Wunderground v.1.15,2013-01-03 17:40:00,
2013-01-03 11:50:00,14.5,8.6,30.44,NW,306,7.0,7.0,77,0.00,,,0.00,432,Wunderground v.1.15,2013-01-03 17:50:00,
2013-01-03 12:00:00,14.7,8.8,30.43,WNW,296,8.0,13.0,77,0.00,,,0.00,439,Wunderground v.1.15,2013-01-03 18:00:00,
2013-01-03 12:10:00,14.9,9.0,30.43,NW,311,8.0,8.0,77,0.00,,,0.00,431,Wunderground v.1.15,2013-01-03 18:10:00,
2013-01-03 12:20:00,15.2,9.6,30.43,West,273,8.0,9.0,78,0.00,,,0.00,415,Wunderground v.1.15,2013-01-03 18:20:00,
2013-01-03 12:30:00,15.3,9.4,30.42,NW,305,8.0,8.0,77,0.00,,,0.00,445,Wunderground v.1.15,2013-01-03 18:30:00,
2013-01-03 12:40:00,15.3,9.4,30.42,NW,316,8.0,13.0,77,0.00,,,0.00,441,Wunderground v.1.15,2013-01-03 18:40:00,
2013-01-03 12:50:00,15.6,9.7,30.42,NW,306,9.0,9.0,77,0.00,,,0.00,313,Wunderground v.1.15,2013-01-03 18:50:00,
2013-01-03 13:00:00,15.8,9.9,30.42,NW,311,9.0,9.0,77,0.00,,,0.00,436,Wunderground v.1.15,2013-01-03 19:00:00,
2013-01-03 13:10:00,15.7,9.8,30.42,NW,315,8.0,8.0,77,0.00,,,0.00,315,Wunderground v.1.15,2013-01-03 19:10:00,
2013-01-03 14:00:00,16.0,10.3,30.41,NW,315,8.0,8.0,78,0.00,,,0.00,376,Wunderground v.1.15,2013-01-03 20:00:00,
2013-01-03 14:10:00,16.0,10.3,30.41,WNW,296,9.0,13.0,78,0.00,,,0.00,360,Wunderground v.1.15,2013-01-03 20:10:00,
2013-01-03 14:20:00,16.0,10.6,30.41,NW,306,9.0,12.0,79,0.00,,,0.00,346,Wunderground v.1.15,2013-01-03 20:20:00,
2013-01-03 14:30:00,16.2,10.8,30.41,WNW,288,6.0,6.0,79,0.00,,,0.00,329,Wunderground v.1.15,2013-01-03 20:30:00,
2013-01-03 14:40:00,16.6,11.2,30.41,West,264,6.0,6.0,79,0.00,,,0.00,327,Wunderground v.1.15,2013-01-03 20:40:00,
2013-01-03 14:50:00,16.5,11.1,30.41,WNW,287,6.0,6.0,79,0.00,,,0.00,267,Wunderground v.1.15,2013-01-03 20:50:00,
2013-01-03 15:00:00,16.8,11.4,30.41,WNW,286,6.0,8.0,79,0.00,,,0.00,260,Wunderground v.1.15,2013-01-03 21:00:00,
2013-01-03 15:10:00,16.8,11.4,30.41,WNW,292,7.0,10.0,79,0.00,,,0.00,183,Wunderground v.1.15,2013-01-03 21:10:00,
2013-01-03 15:20:00,16.3,11.2,30.41,WNW,285,7.0,7.0,80,0.00,,,0.00,95,Wunderground v.1.15,2013-01-03 21:20:00,
2013-01-03 15:30:00,16.0,11.2,30.42,WNW,298,7.0,7.0,81,0.00,,,0.00,109,Wunderground v.1.15,2013-01-03 21:30:00,
2013-01-03 15:40:00,16.1,11.6,30.42,NW,316,5.0,5.0,82,0.00,,,0.00,65,Wunderground v.1.15,2013-01-03 21:40:00,
2013-01-03 15:50:00,16.3,11.8,30.43,NW,314,6.0,6.0,82,0.00,,,0.00,65,Wunderground v.1.15,2013-01-03 21:50:00,
2013-01-03 16:00:00,16.4,12.1,30.43,NW,313,4.0,5.0,83,0.00,,,0.00,54,Wunderground v.1.15,2013-01-03 22:00:00,
2013-01-03 16:10:00,16.7,12.7,30.43,West,264,4.0,4.0,84,0.00,,,0.00,44,Wunderground v.1.15,2013-01-03 22:10:00,
2013-01-03 16:20:00,17.0,12.7,30.43,WNW,302,5.0,5.0,83,0.00,,,0.00,33,Wunderground v.1.15,2013-01-03 22:20:00,
2013-01-03 16:30:00,17.0,12.7,30.43,WNW,296,4.0,4.0,83,0.00,,,0.00,23,Wunderground v.1.15,2013-01-03 22:30:00,
2013-01-03 16:40:00,17.0,12.7,30.43,NNW,338,5.0,8.0,83,0.00,,,0.00,19,Wunderground v.1.15,2013-01-03 22:40:00,
2013-01-03 16:50:00,17.0,12.7,30.43,NW,306,6.0,7.0,83,0.00,,,0.00,9,Wunderground v.1.15,2013-01-03 22:50:00,
2013-01-03 17:00:00,16.9,12.9,30.43,NW,305,4.0,5.0,84,0.00,,,0.00,5,Wunderground v.1.15,2013-01-03 23:00:00,
2013-01-03 17:10:00,16.7,12.7,30.43,WNW,286,3.0,4.0,84,0.00,,,0.00,0,Wunderground v.1.15,2013-01-03 23:10:00,
2013-01-03 17:20:00,16.8,12.8,30.44,West,274,3.0,3.0,84,0.00,,,0.00,0,Wunderground v.1.15,2013-01-03 23:20:00,
2013-01-03 17:30:00,16.9,13.2,30.44,WNW,302,3.0,3.0,85,0.00,,,0.00,0,Wunderground v.1.15,2013-01-03 23:30:00,
2013-01-03 17:40:00,17.1,13.4,30.44,West,266,3.0,3.0,85,0.00,,,0.00,0,Wunderground v.1.15,2013-01-03 23:40:00,
2013-01-03 17:50:00,17.1,13.1,30.44,SW,234,4.0,4.0,84,0.00,,,0.00,0,Wunderground v.1.15,2013-01-03 23:50:00,
2013-01-03 18:00:00,16.7,12.7,30.44,WSW,245,4.0,4.0,84,0.00,,,0.00,0,Wunderground v.1.15,2013-01-04 00:00:00,
2013-01-03 18:10:00,16.5,12.8,30.43,SW,219,4.0,4.0,85,0.00,,,0.00,0,Wunderground v.1.15,2013-01-04 00:10:00,
2013-01-03 18:20:00,16.7,13.0,30.43,SW,228,4.0,4.0,85,0.00,,,0.00,0,Wunderground v.1.15,2013-01-04 00:20:00,
2013-01-03 18:30:00,17.0,13.3,30.43,SW,236,5.0,6.0,85,0.00,,,0.00,0,Wunderground v.1.15,2013-01-04 00:30:00,
2013-01-03 18:40:00,17.2,13.5,30.43,SW,230,4.0,4.0,85,0.00,,,0.00,0,Wunderground v.1.15,2013-01-04 00:40:00,
2013-01-03 18:50:00,17.2,13.5,30.43,SW,216,5.0,5.0,85,0.00,,,0.00,0,Wunderground v.1.15,2013-01-04 00:50:00,
2013-01-03 19:00:00,17.2,13.5,30.42,SW,215,4.0,4.0,85,0.00,,,0.00,0,Wunderground v.1.15,2013-01-04 01:00:00,
2013-01-03 19:10:00,17.2,13.5,30.42,SSW,198,4.0,4.0,85,0.00,,,0.00,0,Wunderground v.1.15,2013-01-04 01:10:00,
2013-01-03 19:20:00,17.5,13.8,30.41,SSW,194,4.0,4.0,85,0.00,,,0.00,0,Wunderground v.1.15,2013-01-04 01:20:00,
2013-01-03 19:30:00,17.4,13.7,30.40,SW,234,4.0,5.0,85,0.00,,,0.00,0,Wunderground v.1.15,2013-01-04 01:30:00,
2013-01-03 19:40:00,17.1,13.6,30.40,SSW,213,4.0,5.0,86,0.00,,,0.00,0,Wunderground v.1.15,2013-01-04 01:40:00,
2013-01-03 19:50:00,17.0,13.3,30.41,SW,234,6.0,7.0,85,0.00,,,0.00,0,Wunderground v.1.15,2013-01-04 01:50:00,
2013-01-03 20:00:00,16.7,13.0,30.40,SW,215,6.0,8.0,85,0.00,,,0.00,0,Wunderground v.1.15,2013-01-04 02:00:00,
2013-01-03 20:10:00,16.3,12.6,30.40,SW,218,5.0,7.0,85,0.00,,,0.00,0,Wunderground v.1.15,2013-01-04 02:10:00,
2013-01-03 20:20:00,16.0,12.3,30.40,SW,218,6.0,6.0,85,0.00,,,0.00,0,Wunderground v.1.15,2013-01-04 02:20:00,
2013-01-03 20:30:00,15.6,12.2,30.40,SW,230,5.0,6.0,86,0.00,,,0.00,0,Wunderground v.1.15,2013-01-04 02:30:00,
2013-01-03 20:40:00,15.2,11.8,30.40,SSW,196,4.0,4.0,86,0.00,,,0.00,0,Wunderground v.1.15,2013-01-04 02:40:00,
2013-01-03 20:50:00,14.6,11.2,30.39,SSW,200,4.0,7.0,86,0.00,,,0.00,0,Wunderground v.1.15,2013-01-04 02:50:00,
2013-01-03 21:00:00,14.0,10.8,30.39,South,186,4.0,4.0,87,0.00,,,0.00,0,Wunderground v.1.15,2013-01-04 03:00:00,
2013-01-03 21:10:00,13.9,10.7,30.39,SSW,193,4.0,5.0,87,0.00,,,0.00,0,Wunderground v.1.15,2013-01-04 03:10:00,
2013-01-03 21:20:00,13.4,10.3,30.39,SSW,193,5.0,6.0,87,0.00,,,0.00,0,Wunderground v.1.15,2013-01-04 03:20:00,
2013-01-03 21:30:00,13.3,10.2,30.39,North,32767,-999.0,0.0,87,0.00,,,0.00,0,Wunderground v.1.15,2013-01-04 03:30:00,
2013-01-03 21:40:00,13.4,10.5,30.38,North,32767,-999.0,0.0,88,0.00,,,0.00,0,Wunderground v.1.15,2013-01-04 03:40:00,
2013-01-03 21:50:00,13.9,10.7,30.38,SSW,196,5.0,7.0,87,0.00,,,0.00,0,Wunderground v.1.15,2013-01-04 03:50:00,
2013-01-03 22:00:00,13.9,11.0,30.37,South,185,6.0,9.0,88,0.00,,,0.00,0,Wunderground v.1.15,2013-01-04 04:00:00,
2013-01-03 22:10:00,15.0,11.8,30.38,SSW,207,7.0,7.0,87,0.00,,,0.00,0,Wunderground v.1.15,2013-01-04 04:10:00,
2013-01-03 22:20:00,15.3,12.1,30.38,SSW,207,6.0,6.0,87,0.00,,,0.00,0,Wunderground v.1.15,2013-01-04 04:20:00,
2013-01-03 22:30:00,15.6,12.2,30.37,SW,221,7.0,7.0,86,0.00,,,0.00,0,Wunderground v.1.15,2013-01-04 04:30:00,
2013-01-03 22:40:00,15.6,12.2,30.37,SSW,200,7.0,7.0,86,0.00,,,0.00,0,Wunderground v.1.15,2013-01-04 04:40:00,
2013-01-03 22:50:00,15.5,12.1,30.37,SSW,207,6.0,7.0,86,0.00,,,0.00,0,Wunderground v.1.15,2013-01-04 04:50:00,
2013-01-03 23:00:00,15.5,12.3,30.37,SW,217,6.0,7.0,87,0.00,,,0.00,0,Wunderground v.1.15,2013-01-04 05:00:00,
2013-01-03 23:10:00,15.8,12.6,30.36,SW,233,7.0,7.0,87,0.00,,,0.00,0,Wunderground v.1.15,2013-01-04 05:10:00,
2013-01-03 23:20:00,16.0,12.6,30.36,SSW,209,6.0,7.0,86,0.00,,,0.00,0,Wunderground v.1.15,2013-01-04 05:20:00,
2013-01-03 23:30:00,16.2,12.7,30.35,SW,215,7.0,7.0,86,0.00,,,0.00,0,Wunderground v.1.15,2013-01-04 05:30:00,
2013-01-03 23:40:00,16.2,12.7,30.35,SW,232,7.0,7.0,86,0.00,,,0.00,0,Wunderground v.1.15,2013-01-04 05:40:00,
2013-01-03 23:50:00,16.3,12.8,30.35,SW,233,7.0,7.0,86,0.00,,,0.00,0,Wunderground v.1.15,2013-01-04 05:50:00,